Weather History for 78762 - January, 2013

Change the Weather History Date:

Thursday, January 3, 2013

  Actual Average Record
Temperature  
Mean Temperature 75 °F -  
Max Temperature 82 °F 80 °F - ()
Min Temperature 68 °F 63 °F - ()
Cooling Degree Days 10    
Growing Degree Days 25 (Base 50)    
Moisture  
Dew Point 58 °F    
Average Humidity 57    
Maximum Humidity 69    
Minimum Humidity 40    
Precipitation  
Precipitation 0.00 in 0.01 in - ()
Sea Level Pressure  
Sea Level Pressure 29.95 in    
Wind  
Wind Speed 11 mph ()    
Max Wind Speed 17 mph    
Max Gust Speed 31 mph    
Visibility 8.1 miles    
Events      
T = Trace of Precipitation, MM = Missing Value Source: Averaged Metar Reports

Daily Weather History Graph

Daily Weather History Graph

Search for Another Location

Airport or City:

Trip Planner

Search our weather history database for the weather conditions in past years. The results will help you decide how hot, cold, wet, or windy it might be!

Date:

Astronomy

Jan. 03, 2013 Rise Set
Actual Time 5:54 AM CST 5:28 PM CST
Civil Twilight 5:31 AM CST 5:51 PM CST
Nautical Twilight 5:05 AM CST 6:17 PM CST
Astronomical Twilight 4:39 AM CST 6:43 PM CST
Moon 10:45 PM CST (1/3) 10:16 AM CST (1/3)
Length of Visible Light 12h 19m
Length of Day
11h 33m
Waning Gibbous, 65% of the Moon is Illuminated
Jan 3
Waning Gibbous
Jan 4
Last Quarter
Jan 11
New
Jan 18
First Quarter
Jan 26
Full

Hourly Weather History & Observations

Time (CST) Temp. Heat Index Dew Point Humidity Pressure Visibility Wind Dir Wind Speed Gust Speed Precip Events Conditions
12:00 AM 69 °F - 56 °F 53% 29.80 in 12 mi ESE 9.2 mph - -  
12:00 AM 69.8 °F - 55.4 °F 60% 29.99 in - ESE 9.2 mph - N/A   Clear
1:00 AM 68.0 °F - 55.4 °F 64% 29.98 in - East 10.4 mph - N/A   Clear
2:00 AM 69.8 °F - 55.4 °F 60% 29.96 in - ESE 8.1 mph - N/A   Clear
3:00 AM 70 °F - 56 °F 51% 29.80 in 12 mi ESE 12.7 mph - -   Clear
3:00 AM 69.8 °F - 55.4 °F 60% 29.96 in - ESE 12.7 mph 24.2 mph N/A   Clear
4:00 AM 68.0 °F - 57.2 °F 68% 29.96 in - ESE 11.5 mph 23.0 mph N/A   Clear
5:00 AM 68.0 °F - 57.2 °F 68% 29.97 in - ESE 12.7 mph 24.2 mph N/A   Clear
6:00 AM 69 °F - 57 °F 57% 29.83 in 12 mi ESE 11.5 mph - -   Clear
6:00 AM 69.8 °F - 57.2 °F 64% 29.98 in - ESE 11.5 mph 23.0 mph N/A   Clear
7:00 AM 73.4 °F - 57.2 °F 57% 30.01 in 6.2 mi East 11.5 mph - N/A   Partly Cloudy
8:00 AM 73.4 °F - 59.0 °F 61% 30.02 in 6.2 mi ESE 13.8 mph - N/A   Partly Cloudy
9:00 AM 76 °F - 59 °F 46% 29.85 in 12 mi ESE 17.3 mph - -   Scattered Clouds
9:00 AM 78.8 °F - 59.0 °F 51% 29.98 in 6.2 mi East 13.8 mph 26.5 mph N/A   Partly Cloudy
10:00 AM 78.8 °F - 57.2 °F 47% 30.02 in 6.2 mi ESE 16.1 mph 31.1 mph N/A   Partly Cloudy
11:00 AM 80.6 °F 80.8 °F 57.2 °F 45% 30.00 in 6.2 mi East 12.7 mph 24.2 mph N/A   Partly Cloudy
12:00 PM 79 °F - 59 °F 40% 29.83 in 12 mi East 13.8 mph - -   Scattered Clouds
12:00 PM 78.8 °F - 59.0 °F 51% 29.98 in 6.2 mi East 13.8 mph 26.5 mph N/A   Partly Cloudy
1:00 PM 80.6 °F 81.1 °F 59.0 °F 48% 29.97 in 6.2 mi East 13.8 mph - N/A   Scattered Clouds
2:00 PM 80.6 °F 81.1 °F 59.0 °F 48% 29.95 in 6.2 mi East 13.8 mph 26.5 mph N/A   Partly Cloudy
3:00 PM 78 °F - 61 °F 45% 29.80 in 12 mi ESE 12.7 mph - -   Scattered Clouds
3:00 PM 78.8 °F - 60.8 °F 54% 29.94 in 6.2 mi ESE 12.7 mph - N/A   Partly Cloudy
4:00 PM 75.2 °F - 60.8 °F 61% 29.96 in 6.2 mi East 13.8 mph - N/A   Mostly Cloudy
5:00 PM 73.4 °F - 59.0 °F 61% 29.98 in 6.2 mi East 13.8 mph - N/A   Mostly Cloudy
6:00 PM 71 °F - 60 °F 60% 29.78 in 12 mi ESE 12.7 mph - -   Partly Cloudy
6:00 PM 71.6 °F - 59.0 °F 64% 30.00 in 6.2 mi East 11.5 mph - N/A   Mostly Cloudy
7:00 PM 71.6 °F - 60.8 °F 69% 30.04 in 6.2 mi ESE 12.7 mph - N/A   Mostly Cloudy
8:00 PM 71.6 °F - 60.8 °F 69% 30.05 in 6.2 mi East 11.5 mph - N/A   Scattered Clouds
9:00 PM 71 °F - 60 °F 59% 29.90 in 12 mi East 10.4 mph - -   Scattered Clouds
9:00 PM 71.6 °F - 59.0 °F 64% 30.05 in 6.2 mi East 10.4 mph - N/A   Partly Cloudy
10:00 PM 69.8 °F - 59.0 °F 68% 30.05 in 6.2 mi ENE 15.0 mph - N/A   Partly Cloudy
11:00 PM 69.8 °F - 57.2 °F 64% 30.04 in 6.2 mi East 12.7 mph - N/A   Partly Cloudy